Simultaneous Nadir Overpasses (SNOs) Predictions

Prediction of SNOs near equator between AQUA and NPP Satellite Orbit:

Table of predicted SNOs near equator for the next 14.0 days since TLE Epoch: 4/6/2017
Index Date (AQUA) Time (AQUA) AQUA Lat,Lon Date (NPP) Time (NPP) NPP Lat,Lon Distance(km) Time Diff (sec)
1 04/09/2017 00:58:16 -3.17, 8.89 04/09/2017 00:49:07 -3.11, 8.48 45.80 549
2 04/09/2017 01:46:31 -1.39, 177.48 04/09/2017 01:38:37 -1.55, 176.82 75.71 474
3 04/11/2017 16:26:03 5.88, -43.45 04/11/2017 16:16:09 5.85, -43.70 27.57 594
4 04/11/2017 17:14:10 -1.31, 125.18 04/11/2017 17:05:31 -1.22, 124.67 57.27 519
5 04/11/2017 18:02:26 -3.19, -66.24 04/11/2017 17:55:02 -3.38, -67.00 87.14 444
6 04/14/2017 08:41:57 4.03, 72.84 04/14/2017 08:32:33 3.97, 72.49 38.99 564
7 04/14/2017 09:30:05 0.48,-118.55 04/14/2017 09:21:56 0.60,-119.15 68.83 489
8 04/14/2017 10:18:19 -5.10, 50.06 04/14/2017 10:11:26 -5.26, 49.19 98.38 413
9 04/17/2017 00:14:31 -24.58, 16.51 04/17/2017 00:04:31 -24.62, 16.09 42.64 600
10 04/17/2017 00:57:51 2.25,-170.89 04/17/2017 00:48:57 2.15,-171.33 50.66 534
11 04/17/2017 01:45:59 2.26, -2.27 04/17/2017 01:38:20 2.42, -2.98 80.41 459
12 04/19/2017 16:25:30 -4.97, 136.81 04/19/2017 16:15:51 -4.92, 136.52 32.26 579
13 04/19/2017 17:13:44 0.37, -54.59 04/19/2017 17:05:21 0.28, -55.14 62.40 503
14 04/19/2017 18:01:52 4.15, 114.03 04/19/2017 17:54:44 4.30, 113.21 91.85 428




NCC Satellite Simultaneous Nadir Overpasses (SNOs) Prediction Service
